Change the Weather History Date:

Wednesday, October 30, 2013

  Actual Average (KBAD) Record (KBAD)
Temperature  
Mean Temperature 68 °F -  
Max Temperature 70 °F 70 °F 84 °F (2000)
Min Temperature 65 °F 50 °F 34 °F (2010)
Cooling Degree Days 2    
Growing Degree Days 18 (Base 50)    
Moisture  
Dew Point 65 °F    
Average Humidity 90    
Maximum Humidity 93    
Minimum Humidity 81    
Precipitation  
Precipitation 1.27 in - - ()
Sea Level Pressure  
Sea Level Pressure 30.06 in    
Wind  
Wind Speed 4 mph (SE)    
Max Wind Speed 15 mph    
Max Gust Speed 21 mph    
Visibility 8 miles    
Events Rain , Thunderstorm    
Averages and records for this station are not official NWS values.
T = Trace of Precipitation, MM = Missing Value Source: NWS Daily Summary

Daily Weather History Graph

Daily Weather History Graph

Search for Another Location

Airport or City:

Trip Planner

Search our weather history database for the weather conditions in past years. The results will help you decide how hot, cold, wet, or windy it might be!

Date:

Astronomy

Oct. 30, 2013 Rise Set
Actual Time 7:29 AM CDT 6:23 PM CDT
Civil Twilight 7:03 AM CDT 6:49 PM CDT
Nautical Twilight 6:34 AM CDT 7:18 PM CDT
Astronomical Twilight 6:06 AM CDT 7:47 PM CDT
Moon 3:31 AM CDT (10/30) 3:58 PM CDT (10/30)
Length of Visible Light 11h 45m
Length of Day
10h 54m
Waning Crescent, 17% of the Moon is Illuminated
Oct 30
Waning Crescent
Nov 3
New
Nov 9
First Quarter
Nov 17
Full
Nov 25
Last Quarter

Hourly Weather History & Observations

Time (CDT) Temp. Dew Point Humidity Pressure Visibility Wind Dir Wind Speed Gust Speed Precip Events Conditions
12:15 AM 69.1 °F 63.1 °F 81% 30.13 in 10.0 mi Calm Calm - N/A   Scattered Clouds
12:35 AM 68.4 °F 63.0 °F 83% 30.12 in 10.0 mi Calm Calm - N/A   Clear
12:55 AM 68.2 °F 63.1 °F 84% 30.12 in 10.0 mi Calm Calm - N/A   Clear
1:15 AM 68.2 °F 63.3 °F 84% 30.12 in 10.0 mi SSE 4.6 mph - N/A   Clear
1:35 AM 68.0 °F 63.3 °F 85% 30.12 in 10.0 mi Calm Calm - N/A   Clear
1:55 AM 68.0 °F 63.3 °F 85% 30.12 in 10.0 mi SE 4.6 mph - N/A   Clear
2:15 AM 67.1 °F 63.1 °F 87% 30.12 in 10.0 mi SSE 3.5 mph - N/A   Clear
2:35 AM 67.3 °F 63.1 °F 87% 30.12 in 10.0 mi SE 4.6 mph - N/A   Clear
2:55 AM 67.1 °F 63.1 °F 87% 30.11 in 10.0 mi SE 3.5 mph - N/A   Clear
3:15 AM 67.1 °F 63.1 °F 87% 30.10 in 10.0 mi SE 4.6 mph - N/A   Clear
3:35 AM 67.1 °F 63.0 °F 87% 30.10 in 10.0 mi SSE 5.8 mph - N/A   Clear
3:55 AM 67.3 °F 63.1 °F 87% 30.10 in 10.0 mi SSE 6.9 mph - N/A   Clear
4:15 AM 66.7 °F 63.0 °F 88% 30.10 in 10.0 mi SSE 6.9 mph - N/A   Clear
4:35 AM 66.4 °F 63.0 °F 89% 30.10 in 10.0 mi SSE 4.6 mph - N/A   Clear
4:55 AM 66.4 °F 63.1 °F 89% 30.11 in 10.0 mi Calm Calm - N/A   Clear
5:15 AM 66.2 °F 63.0 °F 89% 30.12 in 10.0 mi SE 3.5 mph - N/A   Clear
5:35 AM 65.7 °F 62.8 °F 90% 30.12 in 10.0 mi SE 3.5 mph - N/A   Clear
5:55 AM 65.5 °F 62.8 °F 91% 30.12 in 10.0 mi SE 3.5 mph - N/A   Clear
6:15 AM 65.7 °F 63.0 °F 91% 30.11 in 10.0 mi SE 4.6 mph - N/A   Clear
6:35 AM 65.8 °F 63.1 °F 91% 30.11 in 10.0 mi SE 4.6 mph - N/A   Clear
6:55 AM 66.0 °F 63.0 °F 90% 30.11 in 10.0 mi SE 3.5 mph - N/A   Clear
7:15 AM 66.2 °F 63.0 °F 89% 30.11 in 10.0 mi SE 5.8 mph - N/A   Clear
7:35 AM 66.2 °F 63.1 °F 90% 30.11 in 10.0 mi SE 4.6 mph - N/A   Clear
7:55 AM 66.4 °F 63.1 °F 89% 30.10 in 10.0 mi SE 4.6 mph - N/A   Clear
8:15 AM 66.6 °F 63.1 °F 89% 30.10 in 10.0 mi SE 6.9 mph - N/A   Clear
8:35 AM 66.7 °F 63.1 °F 88% 30.11 in 10.0 mi SSE 6.9 mph - N/A   Clear
8:55 AM 66.7 °F 63.0 °F 88% 30.12 in 10.0 mi SSE 5.8 mph - N/A   Scattered Clouds
9:15 AM 67.1 °F 63.1 °F 87% 30.14 in 10.0 mi SSE 5.8 mph - N/A   Mostly Cloudy
9:35 AM 67.3 °F 63.5 °F 88% 30.15 in 10.0 mi SSE 8.1 mph - N/A   Scattered Clouds
9:55 AM 68.0 °F 63.5 °F 85% 30.14 in 10.0 mi SSE 5.8 mph - N/A   Scattered Clouds
10:15 AM 68.2 °F 63.9 °F 86% 30.15 in 10.0 mi SSE 4.6 mph - N/A   Mostly Cloudy
10:35 AM 68.0 °F 64.0 °F 87% 30.15 in 10.0 mi Calm Calm - N/A Rain Light Rain
10:55 AM 68.0 °F 64.4 °F 88% 30.14 in 10.0 mi SE 4.6 mph - N/A Rain Light Rain
11:15 AM 68.0 °F 64.6 °F 89% 30.14 in 10.0 mi SE 3.5 mph - N/A Rain Light Rain
11:35 AM 68.0 °F 64.6 °F 89% 30.14 in 10.0 mi Calm Calm - N/A   Drizzle
11:55 AM 68.0 °F 64.8 °F 89% 30.14 in 7.0 mi Calm Calm - 0.01 in Rain Light Rain
12:15 PM 68.0 °F 65.3 °F 91% 30.12 in 7.0 mi Calm Calm - 0.01 in Rain Rain
12:35 PM 67.6 °F 64.9 °F 91% 30.12 in 5.0 mi Calm Calm - 0.02 in Rain Light Rain
12:55 PM 67.6 °F 65.3 °F 92% 30.13 in 4.0 mi Calm Calm - 0.03 in Rain Rain
1:15 PM 67.6 °F 65.3 °F 92% 30.12 in 5.0 mi Calm Calm - 0.02 in Rain Light Rain
1:35 PM 67.8 °F 65.3 °F 92% 30.11 in 4.0 mi Calm Calm - 0.04 in Rain Light Rain
1:55 PM 67.6 °F 65.3 °F 92% 30.09 in 3.0 mi East 3.5 mph - 0.08 in Rain Rain
2:15 PM 67.3 °F 65.3 °F 93% 30.06 in 2.5 mi East 4.6 mph - 0.02 in Rain Rain
2:35 PM 67.6 °F 65.5 °F 93% 30.06 in 4.0 mi SE 3.5 mph - 0.04 in Rain Light Rain
2:55 PM 67.8 °F 65.5 °F 92% 30.05 in 5.0 mi ESE 3.5 mph - 0.05 in Rain Light Rain
3:15 PM 68.0 °F 65.8 °F 93% 30.04 in 4.0 mi Calm Calm - 0.01 in Rain Light Rain
3:35 PM 68.0 °F 65.8 °F 93% 30.03 in 5.0 mi ESE 4.6 mph - 0.02 in   Light Drizzle
3:55 PM 68.0 °F 65.7 °F 92% 30.02 in 5.0 mi East 3.5 mph - 0.03 in Rain Light Rain
4:15 PM 68.2 °F 66.2 °F 93% 30.01 in 5.0 mi Calm Calm - 0.01 in Rain Light Rain
4:35 PM 68.4 °F 66.2 °F 93% 30.02 in 3.0 mi ESE 3.5 mph - 0.03 in Rain Light Rain
4:55 PM 68.5 °F 66.4 °F 93% 29.99 in 3.0 mi ESE 3.5 mph - 0.04 in   Drizzle
5:15 PM 68.5 °F 66.4 °F 93% 29.99 in 4.0 mi ESE 6.9 mph - N/A Rain Rain
5:35 PM 68.9 °F 66.6 °F 92% 29.99 in 3.0 mi SE 4.6 mph - 0.02 in Rain Rain
5:55 PM 68.9 °F 66.6 °F 92% 29.99 in 2.5 mi ESE 3.5 mph - 0.07 in Rain Heavy Rain
6:15 PM 69.1 °F 66.9 °F 93% 29.99 in 3.0 mi SE 3.5 mph - 0.09 in Rain Heavy Rain
7:35 PM 69.8 °F 67.5 °F 92% 29.97 in 5.0 mi ESE 9.2 mph - 0.08 in Rain Rain
7:55 PM 69.8 °F 67.6 °F 93% 29.97 in 4.0 mi ESE 9.2 mph - 0.17 in Rain Heavy Rain
8:15 PM 70.0 °F 68.0 °F 93% 29.97 in 3.0 mi SE 9.2 mph - 0.11 in Rain Heavy Rain
8:35 PM 70.0 °F 67.6 °F 92% 29.97 in 4.0 mi SE 10.4 mph 16.1 mph 0.28 in Rain Heavy Rain
8:55 PM 69.8 °F 67.5 °F 92% 29.96 in 5.0 mi SE 10.4 mph 16.1 mph 0.37 in Rain Heavy Rain
9:15 PM 69.8 °F 67.3 °F 92% 29.95 in 5.0 mi SE 10.4 mph 18.4 mph 0.07 in Rain , Thunderstorm Rain
9:35 PM 69.8 °F 67.1 °F 91% 29.95 in 3.0 mi SE 11.5 mph - 0.23 in Rain Heavy Rain
9:55 PM 69.8 °F 67.1 °F 91% 29.95 in 10.0 mi SE 8.1 mph 17.3 mph 0.24 in Rain Light Rain
10:15 PM 69.8 °F 66.7 °F 90% 29.94 in 10.0 mi SE 12.7 mph 19.6 mph 0.01 in Rain Light Rain
10:35 PM 69.6 °F 66.6 °F 90% 29.93 in 7.0 mi SE 9.2 mph 16.1 mph 0.02 in Rain Rain
10:55 PM 69.3 °F 66.6 °F 91% 29.92 in 5.0 mi SE 9.2 mph 16.1 mph 0.08 in Rain Heavy Rain
11:15 PM 69.3 °F 66.6 °F 91% 29.90 in 7.0 mi SE 13.8 mph 19.6 mph 0.01 in Rain Rain
11:35 PM 69.4 °F 66.6 °F 91% 29.89 in 10.0 mi SE 9.2 mph 20.7 mph 0.01 in   Overcast
11:55 PM 69.8 °F 66.9 °F 91% 29.88 in 10.0 mi SE 15.0 mph 19.6 mph 0.01 in   Overcast